{"data":{"norad_id":64375,"epoch":"2026-05-24T23:09:29.645280Z","epoch_age_seconds":73952,"freshness":"FRESH","line1":"1 64375U 25127F   26144.96492645  .00226839  00000+0  17185-2 0  9997","line2":"2 64375  43.0028 345.2091 0002490 279.0633  80.9953 15.70907705 55491","mean_motion":15.70907705,"eccentricity":0.000249,"inclination_deg":43.0028,"raan_deg":345.2091,"arg_perigee_deg":279.0633,"mean_anomaly_deg":80.9953,"bstar":0.0017185,"rev_number":5549,"period_min":91.666747538169,"perigee_km":354.62467975745,"apogee_km":357.97843015782,"semimajor_km":6734.4385549576,"source":"CELESTRAK","updated_at":"2026-05-25T13:38:20.410160Z"}}